Change the Weather History Date:

Wednesday, November 14, 2012

  Actual Average (KDFW) Record (KDFW)
Temperature  
Mean Temperature 51 °F 57 °F  
Max Temperature 60 °F 68 °F 89 °F (1989)
Min Temperature 42 °F 47 °F 21 °F (1916)
Degree Days  
Heating Degree Days 14 9  
Month to date heating degree days 94  
Since 1 July heating degree days 166  
Cooling Degree Days 0 1  
Month to date cooling degree days 22  
Year to date cooling degree days 2745  
Growing Degree Days 1 (Base 50)    
Moisture  
Dew Point 28 °F    
Average Humidity 45    
Maximum Humidity 66    
Minimum Humidity 25    
Precipitation  
Precipitation 0.00 in 0.09 in 1.82 in (1994)
Month to date precipitation 1.47  
Year to date precipitation 32.35  
Snow  
Snow 0.00 in 0.00 in 0.50 in (1920)
Month to date snowfall 0.0  
Since 1 July snowfall 0.0  
Since 1 September snowfall 0.0  
Snow Depth -    
Sea Level Pressure  
Sea Level Pressure 30.38 in    
Wind  
Wind Speed 2 mph (SSE)    
Max Wind Speed 6 mph    
Max Gust Speed -    
Visibility 10 miles    
Events      
T = Trace of Precipitation, MM = Missing Value Source: NWS Daily Summary

Daily Weather History Graph

Daily Weather History Graph

Search for Another Location

Airport or City:

Trip Planner

Search our weather history database for the weather conditions in past years. The results will help you decide how hot, cold, wet, or windy it might be!

Date:

Astronomy

Nov. 14, 2012 Rise Set
Actual Time 6:57 AM CST 5:27 PM CST
Civil Twilight 6:31 AM CST 5:53 PM CST
Nautical Twilight 6:01 AM CST 6:23 PM CST
Astronomical Twilight 5:32 AM CST 6:52 PM CST
Moon 7:45 AM CST (11/14) 6:20 PM CST (11/14)
Length of Visible Light 11h 21m
Length of Day
10h 29m
New Moon, 1% of the Moon is Illuminated
Nov 14
New Moon
Nov 20
First Quarter
Nov 28
Full
Dec 6
Last Quarter
Dec 13
New

Hourly Weather History & Observations

Time (CST) Temp. Windchill Dew Point Humidity Pressure Visibility Wind Dir Wind Speed Gust Speed Precip Events Conditions
12:15 AM 50.0 °F - 26.6 °F 40% 30.40 in 10.0 mi ESE 3.5 mph - N/A   Scattered Clouds
12:35 AM 50.0 °F - 26.6 °F 40% 30.40 in 10.0 mi Calm Calm - N/A   Scattered Clouds
12:55 AM 50.0 °F - 28.4 °F 43% 30.40 in 10.0 mi Calm Calm - N/A   Scattered Clouds
1:15 AM 50.0 °F - 28.4 °F 43% 30.40 in 10.0 mi Calm Calm - N/A   Scattered Clouds
1:35 AM 50.0 °F - 28.4 °F 43% 30.41 in 10.0 mi Calm Calm - N/A   Scattered Clouds
1:55 AM 50.0 °F - 28.4 °F 43% 30.41 in 10.0 mi Calm Calm - N/A   Scattered Clouds
2:15 AM 50.0 °F - 28.4 °F 43% 30.42 in 10.0 mi Calm Calm - N/A   Scattered Clouds
2:35 AM 50.0 °F - 28.4 °F 43% 30.42 in 10.0 mi SE 3.5 mph - N/A   Scattered Clouds
2:55 AM 48.2 °F - 28.4 °F 46% 30.41 in 10.0 mi SE 3.5 mph - N/A   Scattered Clouds
3:15 AM 48.2 °F - 28.4 °F 46% 30.41 in 10.0 mi SE 3.5 mph - N/A   Scattered Clouds
3:35 AM 46.4 °F 45.2 °F 28.4 °F 50% 30.41 in 10.0 mi SE 3.5 mph - N/A   Clear
3:55 AM 44.6 °F - 28.4 °F 53% 30.41 in 10.0 mi Calm Calm - N/A   Clear
4:15 AM 44.6 °F - 28.4 °F 53% 30.41 in 10.0 mi Calm Calm - N/A   Clear
4:35 AM 44.6 °F - 30.2 °F 57% 30.41 in 10.0 mi Calm Calm - N/A   Clear
4:55 AM 44.6 °F - 30.2 °F 57% 30.41 in 10.0 mi Calm Calm - N/A   Clear
5:15 AM 42.8 °F - 30.2 °F 61% 30.41 in 10.0 mi Calm Calm - N/A   Clear
5:35 AM 42.8 °F - 30.2 °F 61% 30.41 in 10.0 mi Calm Calm - N/A   Clear
5:55 AM 42.8 °F - 30.2 °F 61% 30.41 in 10.0 mi Calm Calm - N/A   Clear
7:50 AM 44.6 °F - 33.8 °F 66% 30.43 in 10.0 mi Calm Calm - N/A   Clear
8:50 AM 50.0 °F - 32.0 °F 50% 30.45 in 10.0 mi South 3.5 mph - N/A   Clear
9:50 AM 53.6 °F - 28.4 °F 38% 30.46 in 10.0 mi SSE 3.5 mph - N/A   Clear
11:50 AM 57.2 °F - 26.6 °F 31% 30.43 in 10.0 mi South 5.8 mph - N/A   Clear
12:52 PM 59.0 °F - 24.8 °F 27% 30.40 in 10.0 mi Calm Calm - N/A   Clear
1:50 PM 60.8 °F - 24.8 °F 25% 30.36 in 10.0 mi Calm Calm - N/A   Clear
2:50 PM 60.8 °F - 24.8 °F 25% 30.35 in 10.0 mi WSW 3.5 mph - N/A   Clear
3:50 PM 60.8 °F - 24.8 °F 25% 30.33 in 10.0 mi Calm Calm - N/A   Clear
4:50 PM 60.8 °F - 26.6 °F 27% 30.31 in 10.0 mi Calm Calm - N/A   Clear
8:15 PM 48.2 °F - 30.2 °F 50% 30.33 in 10.0 mi Calm Calm - N/A   Clear
8:35 PM 50.0 °F - 30.2 °F 47% 30.33 in 10.0 mi Calm Calm - N/A   Clear
8:55 PM 48.2 °F - 30.2 °F 50% 30.33 in 10.0 mi SE 4.6 mph - N/A   Clear
9:15 PM 48.2 °F - 30.2 °F 50% 30.33 in 10.0 mi SE 3.5 mph - N/A   Clear
9:35 PM 48.2 °F - 28.4 °F 46% 30.33 in 10.0 mi SSE 3.5 mph - N/A   Clear
9:55 PM 48.2 °F - 30.2 °F 50% 30.33 in 10.0 mi SSE 3.5 mph - N/A   Clear
10:15 PM 48.2 °F - 28.4 °F 46% 30.33 in 10.0 mi SE 3.5 mph - N/A   Clear
10:35 PM 48.2 °F - 28.4 °F 46% 30.33 in 10.0 mi SE 4.6 mph - N/A   Clear
10:55 PM 48.2 °F - 26.6 °F 43% 30.32 in 10.0 mi SE 3.5 mph - N/A   Clear
11:15 PM 46.4 °F 44.3 °F 26.6 °F 46% 30.32 in 10.0 mi SE 4.6 mph - N/A   Clear
11:35 PM 46.4 °F 45.2 °F 28.4 °F 50% 30.33 in 10.0 mi SE 3.5 mph - N/A   Clear